Location: Caoba
(9.7667°N, 67.4833°W)
Time: 18:54:55
(UTC+00:00)

GOES 2 Rocket - Pass Details

Date: 09 December 2024
Orbit: 569 x 1662 km, 28.4° (Epoch: 14 January)

Event Time Altitude Azimuth Distance (km) Brightness Sun altitude
Exits shadow 08:44:36 15° 30° (NNE) 1,582 5.2 -26.2°
Drops below altitude 10° 08:46:43 10° 58° (ENE) 1,942 6.0 -25.7°
Sets 08:50:02 0° 81° (E) 2,974 7.5 -25.0°
